User: anonymous   Login
Location: Newark
(48.5178°N, 4.2361°E)
Time: 20:16:04
(UTC+00:00)
Language:

ISS - Orbit

View from above orbital plane
View from above orbital plane
View from above satellite
View from above satellite

Ground track
Ground track

The orbit data is extracted from the following two-line orbital elements,

1 25544U 98067A   21058.69003134  .00002122  00000-0  46635-4 0  9997
2 25544  51.6462 164.3062 0003111  56.2544  86.8956 15.49017590271621
Epoch (UTC): 27 February 2021 16:33:38
Eccentricity: 0.0003111
inclination: 51.6462°
perigee height: 417 km
apogee height: 422 km
right ascension of ascending node: 164.3062°
argument of perigee: 56.2544°
revolutions per day: 15.49017590
mean anomaly at epoch: 86.8956°
orbit number at epoch: 27162

The dashed part of the orbit path shows where the satellite is in the earth's shadow,  

DLR